Location: Antioch
(38.0049°N, 121.8058°W)
Time: 03:09:32
(UTC+00:00)

CBERS-1 - Pass Details

Date: 11 February 2026
Orbit: 766 x 771 km, 98.9° (Epoch: 13 March)

Event Time Altitude Azimuth Distance (km) Brightness Sun altitude
Rises 14:03:52 0° 16° (NNE) 3,248 7.3 -11.9°
Reaches altitude 10° 14:06:12 10° 18° (NNE) 2,318 6.6 -11.5°
Maximum altitude 14:11:18 70° 103° (ESE) 819 4.4 -10.5°
Drops below altitude 10° 14:16:22 10° 187° (S) 2,305 6.5 -9.5°
Sets 14:18:40 0° 189° (S) 3,228 7.3 -9.0°
